Weather in Kananikolskoye

Russia / Republic of Bashkortostan     52°46′50″N   57°28′52″E
temp.,
°C
wind,
m/s
gust,
m/s
humid.,
%
clouds,
%
prec.,
mm/h
press.,
hPa
HPBL,
m
25 february, thu
thu2523:00−24nnw3139486 0.1 1023413
02:00−25nw279763 0.0 1025161
05:00−27nw229948 0.0 102826
08:00−30nnw22990 0.0 103119
11:00−22nnw23840 0.0 1032212
14:00−15nw12750 0.0 1032419
17:00−15w34810 0.0 1032576
20:00−25wsw23952 0.0 103341
26 february, fri
fri2623:00−27sw12961 0.0 103319
02:00−28ssw12897 0.0 103219
05:00−27s229114 0.0 103122
08:00−23s2490100 0.0 1029158
11:00−19s2594100 0.1 1028308
14:00−15s4790100 0.1 1026598
17:00−15s3790100 0.3 1024610
20:00−18sse4995100 0.2 1023422
27 february, sat
sat2723:00−18sse3995100 0.3 1021412
02:00−17sse41094100 0.1 1018400
05:00−16sse51194100 0.4 1015406
08:00−13sse61394100 0.8 1010486
11:00−10s51494100 3.6 1007596
14:00−5ssw51194100 1.4 1004654
17:00−2ssw41096100 2.0 1003622
20:00−2wsw4995100 0.8 1002722
28 february, sun
sun2823:00−3wsw499596 1.3 1003830
02:00−3wsw3896100 1.0 1002583
05:00−5sw2497100 1.6 1002175
08:00−5sw31096100 0.8 1002549
11:00−3sw4894100 1.2 1002641
14:00−2sw4895100 0.5 1003721
17:00−3sw4995100 1.4 1003722
20:00−4sw3897100 0.9 1004489
1 march, mon
mon123:00−6ssw2697100 1.3 1006181
02:00−7sw2497100 0.3 1008121
05:00−12sw239797 0.5 101084
08:00−15wsw129887 0.1 101233
11:00−10wnw129594 0.1 1014212
14:00−6wnw2396100 0.1 1015395
17:00−7w3494100 0.3 1015378
20:00−12w269798 0.1 1017173